ETA/Arrival + Import & Export ROE

 

SERVICE VOYAGE VESSEL POD ROE ETA
AEU7 QPH 002E/E THALASSA AVRA SOU 1.3305 01/11/17
AEU1 QIP 021W/E CSCL ATLANTIC OCEAN FXT 1.3168 01/11/17
ESE N6H 001S/E CAP SAN NICOLAS LGP 1.3204 03/11/17
EPIC ND3 006W/E APL CHARLESTON FXT 1.3305 04/11/17
TAE NO2 010W/E OOCL ASIA SOU 1.3204 04/11/17
NET UEG 004N/E LIVERPOOL EXPRESS FXT 1.3204 04/11/17
AEU5 QMW 019E THALASSA ELPIDA FXT 1.3204 04/11/17
AEU2 Q5N 011E CMA CGM GEROGE FORSTER SOU 1.3189 05/11/17
EPIC S2E 008E MSC ALGECIRAS SOU 1.3189 06/11/17
AEU7 QNC 040E JEBEL ALI FXT 1.3189 06/11/17
AEU1 QJP 001E OOCL JAPAN FXT 1.3189 06/11/17
ESE QFC 018N MAERSK LIMA LGP 1.3189 06/11/17
EPI2 Q7B 015E SAN FRANCISCA LGP 1.3189 06/11/17
AEU7 QNC 040W JEBEL ALI SOU 1.3189 08/11/17
NEWA NR6 010S CMA CGM SAMBHAR TIL 1.3189 07.11.17
AEU1 NQ2 001W OOCL UNITED KINGDOM FXT 1.3118 08.11.17
ESE N8H 001S CAP SAN RAPHAEL LGP 1.3168 10.11.17
TAE SP8 126W OOCL EUROPE SOU 1.3168 11.11.17
NET N08 018N OOCL KOBE FXT 1.3168 11.11.17
AEU5 QSQ 017W THALASSA THYI FXT 1.3168 11.11.17
EPIC S2E 008W MSC ALGECIRAS FXT 1.3168 11.11.17
AEU2 QWU 013W/013E CMA CGM CORTE REAL SOU 1.3112 12.11.17
EPIC NG1 013W/013E APL MIAMI SOU 1.3112 13.11.17
AEU1 QIP 021E CSCL ATLANTIC OCEAN FXT 1.3112 13.11.17
AEU7 QJI 020W/020E THALASSA PATRIS FXT 1.3112 13.11.17
ESE QS5 036N/037S MAERSK LINS LGP 1.3112 13.11.17
EPI2 R2C 010W/010E TEMPANOS LGP 1.3112 13.11.17
AEU7 QJI 020W/020E THALASSA PATRIS SOU 1.3112 15.11.17
AEU1 Q7U 023W CSCL INDIAN OCEAN FXT 1.3280 15.11.17
ESE N9H 023W CAP SAN APTEMISSO LGP 1.3067 17.11.17
TAE QTE 022W EVER LUCKY SOU 1.3067 18.11.17
NET UEJ 006N CPO BALTIMORE FXT 1.3067 18.11.17
EPIC NG1 013W APL MIAMI FXT 1.3067 18.11.17
AEU5 QSO 018W THALASSA NIKI FXT 1.3067 18.11.17
AEU2 Q9Y 010W/010E CMA CGM BOUGAINVILLE SOU 1.3067 19.11.17
EPIC S8U 009W/009E MSC ALGHERO SOU 1.3067 20.11.17
AEU1 NQ2 001E OOCL UNITED KINGDOM FXT 1.3067 20.11.17
ESE QT4 019N/020S MAERSK LEON LGP 1.3067 20.11.17
ESE QY5 022N MAERSK LAVRAS LGP 1.3067 20.11.17
EPI2 R1C 009W/009E TUCAPEL LGP 1.3067 20.11.17
NEWA S6X 010N/011S CMA CGM AFRICA ONE TIL 1.3122 21.11.17
AEU8 AOF 026W/E APL DENVER SOU 1.314 21.11.17
AEU1 QHL 003W OOCL HONG KONG FXT 1.314 21.11.17
ESE N7G 001N CAP SAN LORENZO LGP 1.3118 24.11.17
TAE QES 010E/W CMA CGM LA TRAVIATA SOU 1.3118 25.11.17
NET RMZ 007N/W NORTHERN DECENCY FXT 1.3118 25.11.17
AEU5 NH6 002W/W TAIPEI TRIUMPH FXT 1.3118 25.11.17
EPIC S8U 009W/W MSC ALGHERO FXT 1.3118 25.11.17
AEU2 R2M 011W/011E CMA CGM BENJAMIN SOU 1.3221 26.11.17
EPIC N5H 002W/002E MSC HEIDI SOU 1.3221 27.11.17
AEU1 Q7U 023E CSCL INDIAN OCEAN FXT 1.3221 27.11.17
ESE QS4 038N/039S MAERSK LABERINTO LGP 1.3221 27.11.17
EPI2 QQ7 009W/009E CCNI ARAUCO LGP 1.3221 27.11.17
NET2 RJX 020S HOBBY HUNTER FXT 1.3111 28.11.17
NEWA S7X 010 N/011 S CMA CGM AFRICA TWO TIL 1.3111 28.11.17
AEU1 Q8W 025W/025E CSCL GLOBE FXT 1.3118 29.11.17
ESE N9G 001N CAP SAN AUGUSTIN LGP 1.3195 01.12.17
TAE T92 035E COSCO VIETNAM SOU 1.3195 02.12.17
EPIC N5H 002W/E MSC HEIDI FXT 1.3195 02.12.17
NET UEG 005 N/006 S LIVERPOOL EXPRESS FXT 1.3195 02.12.17
AEU5 QSP 018W/018 E THALASSA MANA FXT 1.3195 02.12.17